Index of /20260422/WXO-DD/model_gdps/15km/00/056
Name Last modified Size Description
Parent Directory -
20260422T00Z_MSC_GDPS_AirTemp_AGL-120m_LatLon0.15_PT056H.grib2 2026-04-22 04:09 903K
20260422T00Z_MSC_GDPS_AirTemp_AGL-2m_LatLon0.15_PT056H.grib2 2026-04-22 04:09 1.0M
20260422T00Z_MSC_GDPS_AirTemp_AGL-40m_LatLon0.15_PT056H.grib2 2026-04-22 04:09 803K
20260422T00Z_MSC_GDPS_AirTemp_AGL-80m_LatLon0.15_PT056H.grib2 2026-04-22 04:09 911K
20260422T00Z_MSC_GDPS_Albedo_Sfc_LatLon0.15_PT056H.grib2 2026-04-22 04:09 248K
20260422T00Z_MSC_GDPS_ConvectivePrecip-Accum_Sfc_LatLon0.15_PT056H.grib2 2026-04-22 04:09 2.9M
20260422T00Z_MSC_GDPS_DewPointDepression_AGL-2m_LatLon0.15_PT056H.grib2 2026-04-22 04:09 752K
20260422T00Z_MSC_GDPS_DewPoint_AGL-2m_LatLon0.15_PT056H.grib2 2026-04-22 04:09 605K
20260422T00Z_MSC_GDPS_DownwardLongwaveRadiationFlux-Accum_Sfc_LatLon0.15_PT056H.grib2 2026-04-22 04:09 850K
20260422T00Z_MSC_GDPS_DownwardShortwaveRadiationFlux-Accum_Sfc_LatLon0.15_PT056H.grib2 2026-04-22 04:09 1.1M
20260422T00Z_MSC_GDPS_FreezingRain-Accum1h_Sfc_LatLon0.15_PT056H.grib2 2026-04-22 04:09 30K
20260422T00Z_MSC_GDPS_FreezingRain-Accum_Sfc_LatLon0.15_PT056H.grib2 2026-04-22 04:09 222K
20260422T00Z_MSC_GDPS_IcePellets-Accum1h_Sfc_LatLon0.15_PT056H.grib2 2026-04-22 04:09 19K
20260422T00Z_MSC_GDPS_IcePellets-Accum_Sfc_LatLon0.15_PT056H.grib2 2026-04-22 04:09 76K
20260422T00Z_MSC_GDPS_LatentHeatNetFlux_Sfc_LatLon0.15_PT056H.grib2 2026-04-22 04:09 557K
20260422T00Z_MSC_GDPS_NetLongwaveRadiationFlux-Accum_Sfc_LatLon0.15_PT056H.grib2 2026-04-22 04:09 1.1M
20260422T00Z_MSC_GDPS_NetShortwaveRadiationFlux-Accum_Sfc_LatLon0.15_PT056H.grib2 2026-04-22 04:09 1.0M
20260422T00Z_MSC_GDPS_O3MixingRatio_LatLon0.15_PT056H.grib2 2026-04-22 04:58 1.9M
20260422T00Z_MSC_GDPS_O3_EAtm_LatLon0.15_PT056H.grib2 2026-04-22 04:58 2.5M
20260422T00Z_MSC_GDPS_PlanetaryBoundaryLayerHeight_Sfc_LatLon0.15_PT056H.grib2 2026-04-22 04:09 2.5M
20260422T00Z_MSC_GDPS_Precip-Accum1h_Sfc_LatLon0.15_PT056H.grib2 2026-04-22 04:09 3.3M
20260422T00Z_MSC_GDPS_Precip-Accum_Sfc_LatLon0.15_PT056H.grib2 2026-04-22 04:09 5.0M
20260422T00Z_MSC_GDPS_PrecipRate_Sfc_LatLon0.15_PT056H.grib2 2026-04-22 04:09 3.1M
20260422T00Z_MSC_GDPS_Pressure_MSL_LatLon0.15_PT056H.grib2 2026-04-22 04:09 823K
20260422T00Z_MSC_GDPS_Pressure_Sfc_LatLon0.15_PT056H.grib2 2026-04-22 04:09 1.1M
20260422T00Z_MSC_GDPS_RadiativeTemp_Sfc_LatLon0.15_PT056H.grib2 2026-04-22 04:09 669K
20260422T00Z_MSC_GDPS_Rain-Accum1h_Sfc_LatLon0.15_PT056H.grib2 2026-04-22 04:09 1.6M
20260422T00Z_MSC_GDPS_Rain-Accum_Sfc_LatLon0.15_PT056H.grib2 2026-04-22 04:09 3.7M
20260422T00Z_MSC_GDPS_RelativeHumidity_AGL-2m_LatLon0.15_PT056H.grib2 2026-04-22 04:09 1.1M
20260422T00Z_MSC_GDPS_Runoff-Accum_Sfc_LatLon0.15_PT056H.grib2 2026-04-22 04:09 116K
20260422T00Z_MSC_GDPS_SensibleHeatNetFlux_Sfc_LatLon0.15_PT056H.grib2 2026-04-22 04:09 663K
20260422T00Z_MSC_GDPS_Snow-Accum1h_Sfc_LatLon0.15_PT056H.grib2 2026-04-22 04:09 1.1M
20260422T00Z_MSC_GDPS_Snow-Accum_Sfc_LatLon0.15_PT056H.grib2 2026-04-22 04:09 1.9M
20260422T00Z_MSC_GDPS_SnowDepth_Sfc_LatLon0.15_PT056H.grib2 2026-04-22 04:09 1.8M
20260422T00Z_MSC_GDPS_SoilTemp_DBS-0to10cm_LatLon0.15_PT056H.grib2 2026-04-22 04:09 503K
20260422T00Z_MSC_GDPS_SoilTemp_Sfc_LatLon0.15_PT056H.grib2 2026-04-22 04:09 588K
20260422T00Z_MSC_GDPS_SoilVolumetricWaterContent_DBS-0to10cm_LatLon0.15_PT056H.grib2 2026-04-22 04:09 559K
20260422T00Z_MSC_GDPS_SoilVolumetricWaterContent_DBS-0to1cm_LatLon0.15_PT056H.grib2 2026-04-22 04:09 651K
20260422T00Z_MSC_GDPS_SpecificHumidity_AGL-120m_LatLon0.15_PT056H.grib2 2026-04-22 04:09 1.1M
20260422T00Z_MSC_GDPS_SpecificHumidity_AGL-2m_LatLon0.15_PT056H.grib2 2026-04-22 04:09 1.2M
20260422T00Z_MSC_GDPS_SpecificHumidity_AGL-40m_LatLon0.15_PT056H.grib2 2026-04-22 04:09 1.1M
20260422T00Z_MSC_GDPS_SpecificHumidity_AGL-80m_LatLon0.15_PT056H.grib2 2026-04-22 04:09 1.1M
20260422T00Z_MSC_GDPS_SpecificHumidity_Sfc_LatLon0.15_PT056H.grib2 2026-04-22 04:09 585K
20260422T00Z_MSC_GDPS_TotalCloudCover_Sfc_LatLon0.15_PT056H.grib2 2026-04-22 04:09 825K
20260422T00Z_MSC_GDPS_UVIndex-ClearSky_Sfc_LatLon0.15_PT056H.grib2 2026-04-22 04:58 1.0M
20260422T00Z_MSC_GDPS_UVIndex_Sfc_LatLon0.15_PT056H.grib2 2026-04-22 04:58 1.4M
20260422T00Z_MSC_GDPS_UpwardLongwaveRadiationFlux_NTAtm_LatLon0.15_PT056H.grib2 2026-04-22 04:09 839K
20260422T00Z_MSC_GDPS_WindDir_AGL-10m_LatLon0.15_PT056H.grib2 2026-04-22 04:09 1.3M
20260422T00Z_MSC_GDPS_WindDir_AGL-120m_LatLon0.15_PT056H.grib2 2026-04-22 04:09 1.3M
20260422T00Z_MSC_GDPS_WindDir_AGL-40m_LatLon0.15_PT056H.grib2 2026-04-22 04:09 1.4M
20260422T00Z_MSC_GDPS_WindDir_AGL-80m_LatLon0.15_PT056H.grib2 2026-04-22 04:09 1.4M
20260422T00Z_MSC_GDPS_WindDir_IsbL-0700_LatLon0.15_PT056H.grib2 2026-04-22 04:09 1.6M
20260422T00Z_MSC_GDPS_WindGust-Max_AGL-10m_LatLon0.15_PT056H.grib2 2026-04-22 04:09 2.2M
20260422T00Z_MSC_GDPS_WindGust-Min_AGL-10m_LatLon0.15_PT056H.grib2 2026-04-22 04:09 2.2M
20260422T00Z_MSC_GDPS_WindGust_AGL-10m_LatLon0.15_PT056H.grib2 2026-04-22 04:09 2.2M
20260422T00Z_MSC_GDPS_WindSpeed_AGL-10m_LatLon0.15_PT056H.grib2 2026-04-22 04:09 1.1M
20260422T00Z_MSC_GDPS_WindSpeed_AGL-120m_LatLon0.15_PT056H.grib2 2026-04-22 04:09 1.2M
20260422T00Z_MSC_GDPS_WindSpeed_AGL-40m_LatLon0.15_PT056H.grib2 2026-04-22 04:09 1.2M
20260422T00Z_MSC_GDPS_WindSpeed_AGL-80m_LatLon0.15_PT056H.grib2 2026-04-22 04:09 1.2M
20260422T00Z_MSC_GDPS_WindSpeed_IsbL-0700_LatLon0.15_PT056H.grib2 2026-04-22 04:09 1.5M
20260422T00Z_MSC_GDPS_WindU_AGL-10m_LatLon0.15_PT056H.grib2 2026-04-22 04:09 1.3M
20260422T00Z_MSC_GDPS_WindU_AGL-120m_LatLon0.15_PT056H.grib2 2026-04-22 04:09 965K
20260422T00Z_MSC_GDPS_WindU_AGL-40m_LatLon0.15_PT056H.grib2 2026-04-22 04:09 962K
20260422T00Z_MSC_GDPS_WindU_AGL-80m_LatLon0.15_PT056H.grib2 2026-04-22 04:09 965K
20260422T00Z_MSC_GDPS_WindU_IsbL-0700_LatLon0.15_PT056H.grib2 2026-04-22 04:09 1.2M
20260422T00Z_MSC_GDPS_WindV_AGL-10m_LatLon0.15_PT056H.grib2 2026-04-22 04:09 1.3M
20260422T00Z_MSC_GDPS_WindV_AGL-120m_LatLon0.15_PT056H.grib2 2026-04-22 04:09 963K
20260422T00Z_MSC_GDPS_WindV_AGL-40m_LatLon0.15_PT056H.grib2 2026-04-22 04:09 960K
20260422T00Z_MSC_GDPS_WindV_AGL-80m_LatLon0.15_PT056H.grib2 2026-04-22 04:09 964K
20260422T00Z_MSC_GDPS_WindV_IsbL-0700_LatLon0.15_PT056H.grib2 2026-04-22 04:09 1.2M